• In Netherlands
  • List of Countries
  • For 7 days
  • Water Temperature
  • Satellite Maps
  • Weather Map
  • Weather Widgets
  • user-avatar
    Login

    Hourly Weather Dhaka

    Today, 22 January, Sunday

    Time Temperature Precipitation Wind Pressure Humidity
    00:00 +18°C° 0 mm 2 mps 762 mmHg 41%
    01:00 +17°C° 0 mm 2 mps 762 mmHg 43%
    02:00 +17°C° 0 mm 3 mps 762 mmHg 45%
    03:00 +17°C° 0 mm 3 mps 762 mmHg 47%
    04:00 +16°C° 0 mm 2 mps 762 mmHg 50%
    05:00 +16°C° 0 mm 2 mps 762 mmHg 53%
    06:00 +15°C° 0 mm 2 mps 762 mmHg 57%
    07:00 +17°C° 0 mm 2 mps 762 mmHg 53%
    08:00 +19°C° 0 mm 2 mps 763 mmHg 50%
    09:00 +21°C° 0 mm 2 mps 763 mmHg 46%
    10:00 +24°C° 0 mm 2 mps 763 mmHg 42%
    11:00 +26°C° 0 mm 2 mps 762 mmHg 37%
    12:00 +28°C° 0 mm 1 mps 762 mmHg 33%
    13:00 +29°C° 0 mm 1 mps 761 mmHg 31%
    14:00 +29°C° 0 mm 2 mps 761 mmHg 28%
    15:00 +30°C° 0 mm 2 mps 760 mmHg 26%
    16:00 +27°C° 0 mm 2 mps 760 mmHg 32%
    17:00 +25°C° 0 mm 2 mps 760 mmHg 37%
    18:00 +21°C° 0 mm 2 mps 759 mmHg 42%
    19:00 +21°C° 0 mm 2 mps 760 mmHg 43%
    20:00 +20°C° 0 mm 2 mps 760 mmHg 44%
    21:00 +20°C° 0 mm 2 mps 760 mmHg 45%
    22:00 +20°C° 0 mm 2 mps 761 mmHg 45%
    23:00 +19°C° 0 mm 2 mps 761 mmHg 45%

    Tomorrow, 23 January, Monday

    Time Temperature Precipitation Wind Pressure Humidity
    00:00 +19°C° 0 mm 3 mps 761 mmHg 46%
    01:00 +18°C° 0 mm 3 mps 761 mmHg 46%
    02:00 +18°C° 0 mm 3 mps 760 mmHg 47%
    03:00 +17°C° 0 mm 3 mps 760 mmHg 48%
    04:00 +17°C° 0 mm 2 mps 760 mmHg 50%
    05:00 +16°C° 0 mm 2 mps 760 mmHg 52%
    06:00 +16°C° 0 mm 2 mps 760 mmHg 54%
    07:00 +18°C° 0 mm 2 mps 761 mmHg 51%
    08:00 +20°C° 0 mm 2 mps 762 mmHg 47%
    09:00 +23°C° 0 mm 2 mps 762 mmHg 44%
    10:00 +25°C° 0 mm 2 mps 762 mmHg 40%
    11:00 +27°C° 0 mm 2 mps 761 mmHg 36%
    12:00 +29°C° 0 mm 2 mps 761 mmHg 32%
    13:00 +29°C° 0 mm 2 mps 760 mmHg 30%
    14:00 +30°C° 0 mm 2 mps 759 mmHg 28%
    15:00 +30°C° 0 mm 2 mps 759 mmHg 26%
    16:00 +28°C° 0 mm 2 mps 759 mmHg 31%
    17:00 +25°C° 0 mm 2 mps 759 mmHg 36%
    18:00 +23°C° 0 mm 2 mps 759 mmHg 40%
    19:00 +21°C° 0 mm 2 mps 759 mmHg 41%
    20:00 +21°C° 0 mm 2 mps 759 mmHg 41%
    21:00 +20°C° 0 mm 2 mps 760 mmHg 41%
    22:00 +20°C° 0 mm 2 mps 760 mmHg 41%
    23:00 +20°C° 0 mm 2 mps 760 mmHg 40%

    Day after tomorrow, 24 January, Tuesday

    Time Temperature Precipitation Wind Pressure Humidity
    00:00 +20°C° 0 mm 3 mps 760 mmHg 40%
    01:00 +19°C° 0 mm 3 mps 760 mmHg 41%
    02:00 +18°C° 0 mm 2 mps 759 mmHg 41%
    03:00 +18°C° 0 mm 2 mps 759 mmHg 42%
    04:00 +17°C° 0 mm 2 mps 759 mmHg 44%
    05:00 +17°C° 0 mm 2 mps 760 mmHg 47%
    06:00 +16°C° 0 mm 2 mps 760 mmHg 49%
    07:00 +18°C° 0 mm 2 mps 760 mmHg 46%
    08:00 +20°C° 0 mm 2 mps 761 mmHg 42%
    09:00 +24°C° 0 mm 2 mps 762 mmHg 39%
    10:00 +26°C° 0 mm 2 mps 761 mmHg 35%
    11:00 +27°C° 0 mm 2 mps 761 mmHg 32%
    12:00 +29°C° 0 mm 2 mps 761 mmHg 28%
    13:00 +30°C° 0 mm 2 mps 760 mmHg 27%
    14:00 +30°C° 0 mm 2 mps 759 mmHg 25%
    15:00 +31°C° 0 mm 2 mps 759 mmHg 23%
    16:00 +28°C° 0 mm 2 mps 759 mmHg 28%
    17:00 +26°C° 0 mm 2 mps 759 mmHg 32%
    18:00 +23°C° 0 mm 2 mps 759 mmHg 36%
    19:00 +21°C° 0 mm 2 mps 760 mmHg 37%
    20:00 +21°C° 0 mm 1 mps 760 mmHg 39%
    21:00 +21°C° 0 mm 1 mps 761 mmHg 40%
    22:00 +19°C° 0 mm 2 mps 761 mmHg 40%
    23:00 +19°C° 0 mm 2 mps 761 mmHg 40%

    25 January, Wednesday

    Time Temperature Precipitation Wind Pressure Humidity
    00:00 +19°C° 0 mm 2 mps 761 mmHg 40%
    01:00 +19°C° 0 mm 2 mps 760 mmHg 40%
    02:00 +18°C° 0 mm 2 mps 760 mmHg 41%
    03:00 +18°C° 0 mm 2 mps 760 mmHg 42%
    04:00 +18°C° 0 mm 2 mps 760 mmHg 43%
    05:00 +17°C° 0 mm 2 mps 761 mmHg 45%
    06:00 +16°C° 0 mm 2 mps 761 mmHg 46%
    07:00 +19°C° 0 mm 2 mps 761 mmHg 43%
    08:00 +21°C° 0 mm 2 mps 762 mmHg 39%
    09:00 +24°C° 0 mm 2 mps 763 mmHg 35%
    10:00 +26°C° 0 mm 2 mps 762 mmHg 32%
    11:00 +28°C° 0 mm 2 mps 762 mmHg 29%
    12:00 +30°C° 0 mm 2 mps 762 mmHg 26%
    13:00 +31°C° 0 mm 2 mps 761 mmHg 24%
    14:00 +31°C° 0 mm 1 mps 760 mmHg 23%
    15:00 +32°C° 0 mm 1 mps 759 mmHg 22%
    16:00 +29°C° 0 mm 1 mps 760 mmHg 27%
    17:00 +26°C° 0 mm 1 mps 760 mmHg 32%
    18:00 +23°C° 0 mm 1 mps 760 mmHg 37%
    19:00 +22°C° 0 mm 1 mps 760 mmHg 39%
    20:00 +22°C° 0 mm 1 mps 761 mmHg 40%
    21:00 +21°C° 0 mm 1 mps 761 mmHg 42%
    22:00 +21°C° 0 mm 1 mps 761 mmHg 42%
    23:00 +21°C° 0 mm 1 mps 761 mmHg 42%

    26 January, Thursday

    Time Temperature Precipitation Wind Pressure Humidity
    00:00 +20°C° 0 mm 2 mps 761 mmHg 42%
    01:00 +19°C° 0 mm 2 mps 761 mmHg 42%
    02:00 +19°C° 0 mm 2 mps 761 mmHg 42%
    03:00 +18°C° 0 mm 2 mps 760 mmHg 42%
    04:00 +18°C° 0 mm 2 mps 761 mmHg 42%
    05:00 +18°C° 0 mm 2 mps 761 mmHg 43%
    06:00 +17°C° 0 mm 2 mps 761 mmHg 43%
    07:00 +19°C° 0 mm 2 mps 762 mmHg 40%
    08:00 +23°C° 0 mm 2 mps 762 mmHg 37%
    09:00 +25°C° 0 mm 1 mps 763 mmHg 33%
    10:00 +27°C° 0 mm 1 mps 762 mmHg 31%
    11:00 +29°C° 0 mm 1 mps 762 mmHg 28%
    12:00 +31°C° 0 mm 1 mps 762 mmHg 26%
    13:00 +30°C° 0 mm 0 mps 761 mmHg 24%
    14:00 +30°C° 0 mm 0 mps 760 mmHg 22%
    15:00 +31°C° 0 mm 0 mps 759 mmHg 21%
    16:00 +28°C° 0 mm 0 mps 759 mmHg 26%
    17:00 +25°C° 0 mm 0 mps 759 mmHg 31%
    18:00 +23°C° 0 mm 1 mps 759 mmHg 37%
    19:00 +23°C° 0 mm 1 mps 759 mmHg 37%
    20:00 +22°C° 0 mm 1 mps 760 mmHg 38%
    21:00 +22°C° 0 mm 1 mps 760 mmHg 39%
    22:00 +21°C° 0 mm 1 mps 760 mmHg 39%
    23:00 +21°C° 0 mm 1 mps 760 mmHg 40%

    27 January, Friday

    Time Temperature Precipitation Wind Pressure Humidity
    00:00 +20°C° 0 mm 1 mps 760 mmHg 41%
    01:00 +20°C° 0 mm 1 mps 759 mmHg 44%
    02:00 +19°C° 0 mm 1 mps 759 mmHg 46%
    03:00 +19°C° 0 mm 1 mps 759 mmHg 49%
    04:00 +19°C° 0 mm 1 mps 759 mmHg 49%
    05:00 +19°C° 0 mm 1 mps 759 mmHg 48%
    06:00 +18°C° 0 mm 1 mps 759 mmHg 48%
    07:00 +21°C° 0 mm 1 mps 760 mmHg 42%
    08:00 +24°C° 0 mm 1 mps 760 mmHg 37%
    09:00 +27°C° 0 mm 1 mps 761 mmHg 32%
    10:00 +27°C° 0 mm 0 mps 761 mmHg 29%
    11:00 +28°C° 0 mm 0 mps 760 mmHg 26%
    12:00 +30°C° 0 mm 0 mps 760 mmHg 23%
    13:00 +32°C° 0 mm 1 mps 759 mmHg 22%
    14:00 +33°C° 0 mm 1 mps 759 mmHg 21%
    15:00 +34°C° 0 mm 2 mps 758 mmHg 20%
    16:00 +31°C° 0 mm 2 mps 758 mmHg 23%
    17:00 +29°C° 0 mm 2 mps 758 mmHg 26%
    18:00 +26°C° 0 mm 2 mps 758 mmHg 29%
    19:00 +26°C° 0 mm 2 mps 758 mmHg 30%
    20:00 +26°C° 0 mm 2 mps 759 mmHg 30%
    21:00 +25°C° 0 mm 2 mps 759 mmHg 31%
    22:00 +24°C° 0 mm 2 mps 759 mmHg 32%
    23:00 +23°C° 0 mm 2 mps 759 mmHg 34%
    Show more